Aurora, NE

2:44 PM CDT on June 26, 2017 (GMT -0500)
Aurora Municipal

Weather History for KAUH - May, 2013

Change the Weather History Date:

Thursday, May 23, 2013

  Actual Average Record
Temperature  
Mean Temperature 60 °F -  
Max Temperature 70 °F 75 °F 93 °F (1964)
Min Temperature 51 °F 52 °F 42 °F (1973)
Degree Days  
Heating Degree Days 4    
Growing Degree Days 10 (Base 50)    
Moisture  
Dew Point 49 °F    
Average Humidity 72    
Maximum Humidity 94    
Minimum Humidity 43    
Precipitation  
Precipitation 0.00 in - - ()
Sea Level Pressure  
Sea Level Pressure 30.16 in    
Wind  
Wind Speed 11 mph (ENE)    
Max Wind Speed 20 mph    
Max Gust Speed 25 mph    
Visibility 10 miles    
Events      
Averages and records for this station are not official NWS values.
T = Trace of Precipitation, MM = Missing Value Source: NWS Daily Summary

Daily Weather History Graph

Daily Weather History Graph

Search for Another Location

Airport or City:

Trip Planner

Search our weather history database for the weather conditions in past years. The results will help you decide how hot, cold, wet, or windy it might be!

Date:

Astronomy

May. 23, 2013 Rise Set
Actual Time 6:07 AM CDT 8:50 PM CDT
Civil Twilight 5:35 AM CDT 9:22 PM CDT
Nautical Twilight 4:55 AM CDT 10:02 PM CDT
Astronomical Twilight 4:09 AM CDT 10:48 PM CDT
Moon 7:24 PM CDT (5/23) 4:54 AM CDT (5/23)
Length of Visible Light 15h 47m
Length of Day
14h 42m
Waxing Gibbous, 97% of the Moon is Illuminated
May 23
Waxing Gibbous
May 24
Full
May 31
Last Quarter
Jun 8
New
Jun 16
First Quarter

Hourly Weather History & Observations

Time (CDT) Temp. Dew Point Humidity Pressure Visibility Wind Dir Wind Speed Gust Speed Precip Events Conditions
12:15 AM 52.9 °F 48.2 °F 84% 30.05 in 10.0 mi North 12.7 mph - N/A   Mostly Cloudy
12:35 AM 53.2 °F 48.2 °F 83% 30.06 in 10.0 mi North 8.1 mph - N/A   Overcast
12:55 AM 53.6 °F 48.4 °F 82% 30.06 in 10.0 mi NNW 10.4 mph - N/A   Overcast
1:15 AM 53.6 °F 48.2 °F 82% 30.06 in 10.0 mi North 13.8 mph - N/A   Overcast
1:35 AM 53.6 °F 48.2 °F 82% 30.07 in 10.0 mi North 13.8 mph - N/A   Overcast
1:55 AM 53.6 °F 48.4 °F 82% 30.07 in 10.0 mi NNW 10.4 mph - N/A   Overcast
2:15 AM 52.7 °F 48.6 °F 86% 30.07 in 10.0 mi NNW 10.4 mph - N/A   Overcast
2:35 AM 52.9 °F 49.1 °F 87% 30.07 in 10.0 mi NNW 10.4 mph - N/A   Overcast
2:55 AM 52.9 °F 49.1 °F 87% 30.08 in 10.0 mi NNW 10.4 mph 16.1 mph N/A   Overcast
3:15 AM 53.2 °F 49.3 °F 86% 30.08 in 10.0 mi North 10.4 mph - N/A   Overcast
3:35 AM 53.6 °F 49.6 °F 86% 30.08 in 10.0 mi NNW 11.5 mph - N/A   Overcast
3:55 AM 52.3 °F 49.5 °F 90% 30.08 in 10.0 mi NNW 9.2 mph - N/A   Mostly Cloudy
4:15 AM 51.3 °F 49.1 °F 92% 30.09 in 10.0 mi NNW 8.1 mph - N/A   Scattered Clouds
4:35 AM 51.3 °F 49.6 °F 94% 30.10 in 10.0 mi North 11.5 mph - N/A   Mostly Cloudy
4:55 AM 52.2 °F 49.6 °F 91% 30.10 in 10.0 mi North 15.0 mph - N/A   Overcast
5:15 AM 52.3 °F 49.5 °F 90% 30.10 in 10.0 mi North 10.4 mph - N/A   Overcast
5:35 AM 51.8 °F 49.1 °F 90% 30.10 in 10.0 mi North 10.4 mph - N/A   Overcast
5:55 AM 51.3 °F 48.7 °F 91% 30.11 in 10.0 mi North 6.9 mph - N/A   Mostly Cloudy
6:15 AM 51.3 °F 49.1 °F 92% 30.13 in 10.0 mi NNW 5.8 mph - N/A   Overcast
6:35 AM 51.8 °F 49.3 °F 91% 30.13 in 10.0 mi NNW 5.8 mph - N/A   Overcast
7:15 AM 52.7 °F 49.8 °F 90% 30.16 in 10.0 mi North 10.4 mph - N/A   Overcast
7:19 AM 53.6 °F 50.0 °F 88% 30.17 in 10.0 mi NNE 9.2 mph - N/A   Overcast
7:35 AM 52.7 °F 50.4 °F 92% 30.17 in 10.0 mi NNE 9.2 mph - N/A   Overcast
7:55 AM 52.7 °F 50.0 °F 91% 30.18 in 10.0 mi NNE 12.7 mph - N/A   Overcast
8:15 AM 52.7 °F 50.2 °F 91% 30.19 in 10.0 mi North 11.5 mph - N/A   Overcast
8:35 AM 52.3 °F 49.8 °F 91% 30.20 in 10.0 mi NE 11.5 mph - N/A   Overcast
8:55 AM 51.3 °F 48.7 °F 91% 30.21 in 10.0 mi NNE 11.5 mph - N/A   Overcast
9:15 AM 52.0 °F 48.6 °F 88% 30.20 in 10.0 mi NE 13.8 mph - N/A   Overcast
9:35 AM 52.0 °F 48.9 °F 89% 30.21 in 10.0 mi NNE 11.5 mph - N/A   Overcast
9:55 AM 52.7 °F 49.3 °F 88% 30.20 in 10.0 mi NE 16.1 mph 23.0 mph N/A   Overcast
10:15 AM 53.1 °F 49.5 °F 88% 30.20 in 10.0 mi NE 16.1 mph - N/A   Overcast
10:35 AM 52.9 °F 49.5 °F 88% 30.21 in 10.0 mi ENE 11.5 mph - N/A   Overcast
10:55 AM 53.1 °F 49.8 °F 89% 30.20 in 10.0 mi NE 11.5 mph - N/A   Overcast
11:15 AM 53.6 °F 49.8 °F 87% 30.20 in 10.0 mi NE 12.7 mph 18.4 mph N/A   Overcast
11:35 AM 54.7 °F 50.0 °F 84% 30.20 in 10.0 mi ENE 10.4 mph - N/A   Overcast
11:55 AM 56.1 °F 50.5 °F 82% 30.19 in 10.0 mi NE 17.3 mph 20.7 mph N/A   Overcast
12:15 PM 59.0 °F 50.5 °F 73% 30.19 in 10.0 mi NE 17.3 mph 21.9 mph N/A   Overcast
12:35 PM 60.3 °F 50.4 °F 70% 30.20 in 10.0 mi ENE 16.1 mph 24.2 mph N/A   Overcast
12:55 PM 61.3 °F 50.2 °F 67% 30.20 in 10.0 mi East 13.8 mph - N/A   Mostly Cloudy
1:15 PM 62.4 °F 50.5 °F 65% 30.19 in 10.0 mi East 11.5 mph 18.4 mph N/A   Scattered Clouds
1:35 PM 65.1 °F 50.5 °F 59% 30.20 in 10.0 mi East 15.0 mph 21.9 mph N/A   Scattered Clouds
1:55 PM 66.2 °F 50.5 °F 57% 30.19 in 10.0 mi East 11.5 mph 23.0 mph N/A   Scattered Clouds
2:15 PM 67.1 °F 50.7 °F 56% 30.19 in 10.0 mi ESE 11.5 mph 19.6 mph N/A   Scattered Clouds
2:35 PM 68.0 °F 50.0 °F 52% 30.20 in 10.0 mi East 19.6 mph 24.2 mph N/A   Scattered Clouds
2:55 PM 68.5 °F 50.4 °F 52% 30.20 in 10.0 mi ESE 12.7 mph 23.0 mph N/A   Scattered Clouds
3:15 PM 69.1 °F 49.8 °F 50% 30.19 in 10.0 mi East 19.6 mph 23.0 mph N/A   Scattered Clouds
3:35 PM 69.8 °F 49.1 °F 48% 30.19 in 10.0 mi East 17.3 mph 25.3 mph N/A   Clear
3:55 PM 69.8 °F 49.1 °F 48% 30.19 in 10.0 mi East 13.8 mph 18.4 mph N/A   Clear
4:15 PM 70.5 °F 48.7 °F 46% 30.18 in 10.0 mi ESE 15.0 mph 21.9 mph N/A   Clear
4:35 PM 70.2 °F 47.7 °F 45% 30.18 in 10.0 mi ESE 15.0 mph 21.9 mph N/A   Clear
4:55 PM 69.8 °F 46.4 °F 43% 30.18 in 10.0 mi East 18.4 mph 23.0 mph N/A   Clear
5:15 PM 70.3 °F 47.7 °F 44% 30.18 in 10.0 mi ESE 17.3 mph 24.2 mph N/A   Clear
5:35 PM 70.7 °F 47.3 °F 43% 30.18 in 10.0 mi SE 13.8 mph 19.6 mph N/A   Clear
5:55 PM 70.5 °F 47.3 °F 44% 30.18 in 10.0 mi East 13.8 mph - N/A   Clear
6:15 PM 70.0 °F 47.3 °F 44% 30.18 in 10.0 mi ESE 13.8 mph 21.9 mph N/A   Clear
6:35 PM 70.2 °F 47.7 °F 45% 30.18 in 10.0 mi SE 11.5 mph 18.4 mph N/A   Clear
6:55 PM 69.8 °F 48.0 °F 46% 30.17 in 10.0 mi ESE 11.5 mph - N/A   Clear
7:15 PM 69.6 °F 47.5 °F 45% 30.17 in 10.0 mi ESE 12.7 mph - N/A   Clear
7:35 PM 69.3 °F 47.5 °F 46% 30.17 in 10.0 mi ESE 13.8 mph - N/A   Clear
7:55 PM 68.7 °F 47.3 °F 46% 30.17 in 10.0 mi SE 11.5 mph - N/A   Clear
8:15 PM 67.6 °F 47.3 °F 48% 30.17 in 10.0 mi ESE 8.1 mph - N/A   Clear
8:35 PM 65.7 °F 47.3 °F 51% 30.17 in 10.0 mi SE 8.1 mph - N/A   Clear
8:55 PM 63.9 °F 47.3 °F 55% 30.17 in 10.0 mi SE 8.1 mph - N/A   Clear
9:15 PM 62.6 °F 47.5 °F 58% 30.17 in 10.0 mi SE 6.9 mph - N/A   Clear
9:35 PM 61.7 °F 47.7 °F 60% 30.18 in 10.0 mi SE 6.9 mph - N/A   Clear
9:55 PM 59.9 °F 48.0 °F 65% 30.18 in 10.0 mi SE 6.9 mph - N/A   Clear
10:15 PM 57.6 °F 47.7 °F 70% 30.19 in 10.0 mi SE 5.8 mph - N/A   Clear
10:35 PM 56.5 °F 47.7 °F 72% 30.20 in 10.0 mi SE 5.8 mph - N/A   Clear
10:55 PM 57.2 °F 48.7 °F 73% 30.21 in 10.0 mi SSE 5.8 mph - N/A   Clear
11:15 PM 58.3 °F 49.5 °F 72% 30.22 in 10.0 mi South 8.1 mph - N/A   Clear
11:35 PM 57.0 °F 49.5 °F 76% 30.22 in 10.0 mi SSE 4.6 mph - N/A   Clear
11:55 PM 55.4 °F 49.3 °F 80% 30.21 in 10.0 mi SSE 5.8 mph - N/A   Clear